Location: *
(42.6217°S, 106.1818°E)
Time: 03:54:20
(UTC+00:00)

Daily predictions for brighter satellites

Satellite Brightness Start Highest point End
(mag) Time Altitude Azimuth Time Altitude Azimuth Time Altitude Azimuth
Cosmos 614 Rocket 4.0 10:57:52 10° SSW 11:03:06 74° ESE 11:08:19 10° NNE
STARLINK-42 3.6 11:02:43 10° SW 11:05:54 42° SSE 11:09:02 10° ENE
H-2A R/B 2.7 11:02:14 10° SSE 11:06:07 86° ENE 11:09:53 10° NNW
STARLINK-41 3.7 11:05:11 10° SW 11:08:13 37° SSE 11:11:14 10° E
Meteor 2-15 Rocket 4.5 11:02:47 10° S 11:08:58 66° E 11:15:04 10° NNE
Cosmos 1242 Rocket 3.1 11:08:41 10° NNE 11:12:08 39° E 11:15:39 10° SSE
Cosmos 407 Rocket 3.5 11:07:17 10° SSW 11:12:43 75° ESE 11:18:00 10° NNE
Cosmos 1340 Rocket 4.5 11:10:07 10° SSE 11:12:47 16° ESE 11:15:25 10° ENE
CZ-4 R/B 2.9 11:11:18 10° SE 11:13:52 16° E 11:16:22 10° NE
NOAA 12 4.3 11:10:51 10° SSE 11:16:07 51° E 11:21:20 10° N
Cosmos 1452 Rocket 4.5 11:12:30 10° NNE 11:16:48 25° E 11:21:07 10° SE
Gbstr 26 Del rocket 4.3 11:11:55 10° WNW 11:17:58 76° SSW 11:25:26 10° SE
STARLINK-80 3.7 11:15:38 10° WSW 11:19:30 72° NW 11:23:19 10° NE
Cosmos 1939 Rocket 4.5 11:17:52 10° SE 11:20:28 16° E 11:23:00 10° NE
Cosmos 2278 Rocket 3.5 11:19:11 10° NE 11:22:55 18° E 11:26:40 10° ESE
Helios 1A Rocket 3.1 11:21:29 10° SSE 11:25:44 81° WSW 11:29:55 10° NNW
Cosmos 1844 3.7 11:20:25 10° NNW 11:26:12 72° ENE 11:32:02 10° SSE
STARLINK-1149 4.4 11:25:08 10° N 11:28:12 26° NE 11:30:24 15° E
Cosmos 2228 3.5 11:27:22 10° S 11:31:24 37° ESE 11:35:23 10° NE
In-Cosmos 22 4.0 11:26:56 10° N 11:32:12 69° E 11:37:33 10° SSE
Cosmos 1606 Rocket 3.9 11:28:16 10° S 11:32:28 41° ESE 11:36:37 10° NNE
MOS 1 Rocket 4.3 11:28:12 10° NE 11:32:36 29° ESE 11:36:49 10° S
Envisat 3.0 11:27:45 10° SSE 11:32:57 82° ENE 11:38:04 10° N
STARLINK-55 2.9 11:30:51 10° SW 11:34:09 86° SE 11:36:50 14° NE
Cosmos 1892 Rocket 4.3 11:30:20 10° NNE 11:34:14 30° E 11:38:09 10° SSE
Lacrosse 4 Rocket 1.4 11:30:12 10° NNW 11:34:19 59° ENE 11:38:24 10° SE
Lacrosse 5 2.2 11:29:55 10° NNW 11:34:46 45° NE 11:39:35 11° ESE
Cosmos 1953 2.4 11:31:09 10° S 11:35:15 86° W 11:39:16 10° N
Cosmos 1954 Rocket 4.1 11:30:11 10° SSW 11:35:31 58° ESE 11:40:48 10° NNE
STARLINK-28 3.0 11:34:29 10° SW 11:37:47 82° NW 11:40:25 15° NE
STARLINK-1132 4.1 11:35:38 10° NNW 11:38:53 32° NE 11:40:44 20° E
STARLINK-1177 4.0 11:37:06 10° NNW 11:40:14 31° NE 11:41:52 21° E
CORIOLIS 4.2 11:36:05 10° SSE 11:41:33 86° WSW 11:46:59 10° NNW
STARLINK-1167 4.0 11:39:23 10° NNW 11:42:34 33° NE 11:44:07 22° E
STARLINK-33 3.0 11:40:06 10° SW 11:43:23 83° NW 11:45:40 18° NE
Cosmos 1908 3.6 11:39:55 10° S 11:43:37 40° ESE 11:47:15 10° NNE
SMAP 3.9 11:41:50 10° S 11:46:28 55° WSW 11:51:02 10° NNW
STARLINK-66 3.1 11:45:01 10° WSW 11:48:18 73° NW 11:50:24 20° NE
STARLINK-1163 3.7 11:47:10 10° NNW 11:50:29 40° NE 11:51:48 28° E
USA 81 4.1 11:45:58 10° NNE 11:51:10 58° E 11:56:26 10° SSE
STARLINK-58 3.2 11:49:20 10° SW 11:52:27 49° SSE 11:53:31 33° E
SL-08 ROCKET BODY 4.5 11:47:01 10° NNE 11:52:39 49° E 11:58:20 10° SSE
Cosmos 371 Rocket 3.8 11:48:36 10° NNE 11:53:04 36° ENE 11:57:35 10° SE
Okean O Rocket 4.1 11:49:47 10° SSW 11:53:23 24° WSW 11:56:57 10° WNW
STARLINK-64 3.4 11:51:27 10° SW 11:55:08 60° SSE 11:56:40 31° ENE
Shenzhou-11 Module 2.0 11:54:46 10° WNW 11:57:20 45° NNE 11:57:34 43° NE
